Weather History for Phoenix, AZ

Change the Weather History Date:

Thursday, May 9, 2013

  Actual Average Record
Temperature  
Mean Temperature 78 °F 80 °F  
Max Temperature 88 °F 93 °F 108 °F (1934)
Min Temperature 67 °F 68 °F 45 °F (1950)
Degree Days  
Heating Degree Days 0 0  
Month to date heating degree days 0 0  
Since 1 July heating degree days 881 934  
Cooling Degree Days 13 15  
Month to date cooling degree days 134 125  
Year to date cooling degree days 638 480  
Growing Degree Days 27 (Base 50)    
Moisture  
Dew Point 36 °F    
Average Humidity 24    
Maximum Humidity 32    
Minimum Humidity 15    
Precipitation  
Precipitation 0.00 in 0.00 in 0.46 in (1912)
Month to date precipitation 0.00 0.03  
Year to date precipitation 2.61 3.13  
Snow  
Snow 0.00 in - - ()
Month to date snowfall 0.0  
Year to date snowfall 0.0  
Since 1 July snowfall 0.0  
Snow Depth 0.00 in    
Sea Level Pressure  
Sea Level Pressure 29.88 in    
Wind  
Wind Speed 6 mph (West)    
Max Wind Speed 14 mph    
Max Gust Speed 23 mph    
Visibility 10 miles    
Events      
T = Trace of Precipitation, MM = Missing Value Source: NWS Daily Summary

Daily Weather History Graph

Daily Weather History Graph

Search for Another Location

Airport:

Trip Planner

Search our weather history database for the weather conditions in past years. The results will help you decide how hot, cold, wet, or windy it might be!

Date:

Astronomy

May. 09, 2013 Rise Set
Actual Time 5:32 AM MST 7:17 PM MST
Civil Twilight 5:05 AM MST 7:44 PM MST
Nautical Twilight 4:32 AM MST 8:16 PM MST
Astronomical Twilight 3:58 AM MST 8:51 PM MST
Moon 5:17 AM MST (5/9) 7:15 PM MST (5/9)
Length of Visible Light 14h 39m
Length of Day
13h 44m
Waning Crescent, 0% of the Moon is Illuminated
May 9
Waning Crescent
May 9
New
May 17
First Quarter
May 24
Full
May 31
Last Quarter

Hourly Weather History & Observations

Time (MST) Temp. Dew Point Humidity Pressure Visibility Wind Dir Wind Speed Gust Speed Precip Events Conditions
12:51 AM 72.0 °F 33.1 °F 24% 29.89 in 10.0 mi WSW 5.8 mph - N/A   Mostly Cloudy
1:51 AM 71.1 °F 34.0 °F 26% 29.89 in 10.0 mi WSW 4.6 mph - N/A   Mostly Cloudy
2:51 AM 73.0 °F 33.1 °F 23% 29.89 in 10.0 mi West 8.1 mph - N/A   Scattered Clouds
3:51 AM 69.1 °F 35.1 °F 29% 29.88 in 10.0 mi West 4.6 mph - N/A   Scattered Clouds
4:51 AM 71.1 °F 34.0 °F 26% 29.89 in 10.0 mi WNW 3.5 mph - N/A   Scattered Clouds
5:51 AM 69.1 °F 36.0 °F 30% 29.91 in 10.0 mi Calm Calm - N/A   Mostly Cloudy
6:51 AM 68.0 °F 37.0 °F 32% 29.92 in 10.0 mi East 8.1 mph - N/A   Partly Cloudy
7:51 AM 72.0 °F 39.0 °F 30% 29.93 in 10.0 mi ENE 6.9 mph - N/A   Partly Cloudy
8:51 AM 73.9 °F 39.9 °F 29% 29.94 in 10.0 mi Variable 3.5 mph - N/A   Partly Cloudy
9:51 AM 75.9 °F 41.0 °F 29% 29.94 in 10.0 mi NNW 6.9 mph - N/A   Scattered Clouds
10:51 AM 80.1 °F 39.0 °F 23% 29.93 in 10.0 mi Variable 3.5 mph - N/A   Scattered Clouds
11:51 AM 82.0 °F 36.0 °F 19% 29.91 in 10.0 mi Variable 3.5 mph - N/A   Scattered Clouds
12:51 PM 86.0 °F 37.0 °F 18% 29.89 in 10.0 mi South 8.1 mph - N/A   Scattered Clouds
1:51 PM 84.9 °F 34.0 °F 16% 29.87 in 10.0 mi North 6.9 mph - N/A   Scattered Clouds
2:51 PM 84.9 °F 34.0 °F 16% 29.84 in 10.0 mi NW 8.1 mph - N/A   Scattered Clouds
3:51 PM 86.0 °F 34.0 °F 16% 29.83 in 10.0 mi WSW 11.5 mph - N/A   Scattered Clouds
4:51 PM 86.0 °F 35.1 °F 16% 29.81 in 10.0 mi WSW 6.9 mph 23.0 mph N/A   Scattered Clouds
5:51 PM 84.9 °F 35.1 °F 17% 29.81 in 10.0 mi West 12.7 mph - N/A   Scattered Clouds
6:51 PM 84.0 °F 33.1 °F 16% 29.82 in 10.0 mi NW 6.9 mph 17.3 mph N/A   Scattered Clouds
7:51 PM 82.9 °F 30.0 °F 15% 29.83 in 10.0 mi WNW 8.1 mph - N/A   Scattered Clouds
8:51 PM 82.9 °F 34.0 °F 17% 29.85 in 10.0 mi West 9.2 mph - N/A   Clear
9:51 PM 79.0 °F 36.0 °F 21% 29.87 in 10.0 mi Calm Calm - N/A   Partly Cloudy
10:51 PM 79.0 °F 37.0 °F 22% 29.87 in 10.0 mi West 4.6 mph - N/A   Partly Cloudy
11:51 PM 78.1 °F 37.0 °F 23% 29.88 in 10.0 mi West 5.8 mph - N/A   Partly Cloudy